TimePDT,TemperatureF,Dew PointF,Humidity,Sea Level PressureIn,VisibilityMPH,Wind Direction,Wind SpeedMPH,Gust SpeedMPH,PrecipitationIn,Events,Conditions,WindDirDegrees,DateUTC
12:52 AM,37.0,34.0,89,30.05,8.0,ESE,4.6,-,N/A,,Clear,120,2013-10-27 07:52:00
1:52 AM,37.9,35.1,89,30.00,8.0,SE,4.6,-,N/A,,Clear,130,2013-10-27 08:52:00
2:52 AM,39.0,35.1,86,29.96,8.0,ESE,5.8,-,N/A,,Clear,110,2013-10-27 09:52:00
3:52 AM,36.0,34.0,93,29.91,7.0,NNE,3.5,-,N/A,,Clear,30,2013-10-27 10:52:00
4:52 AM,37.0,35.1,93,29.87,6.0,NNE,3.5,-,N/A,,Clear,20,2013-10-27 11:52:00
5:52 AM,39.9,37.9,93,29.84,4.0,NNE,8.1,-,N/A,,Overcast,30,2013-10-27 12:52:00
6:52 AM,41.0,39.9,96,29.84,5.0,North,8.1,-,N/A,,Overcast,10,2013-10-27 13:52:00
7:52 AM,42.1,39.9,92,29.98,5.0,Calm,Calm,-,N/A,,Overcast,0,2013-10-27 14:52:00
8:32 AM,42.8,39.2,87,29.83,5.0,North,10.4,-,N/A,,Overcast,10,2013-10-27 15:32:00
8:52 AM,43.0,39.9,89,29.96,5.0,NNE,13.8,-,N/A,,Mostly Cloudy,30,2013-10-27 15:52:00
9:06 AM,42.8,39.2,87,29.81,5.0,ENE,6.9,-,N/A,,Scattered Clouds,70,2013-10-27 16:06:00
9:27 AM,44.6,41.0,87,29.81,5.0,NNE,9.2,-,N/A,,Mostly Cloudy,20,2013-10-27 16:27:00
9:52 AM,45.0,41.0,86,29.97,6.0,NNE,10.4,-,N/A,,Overcast,30,2013-10-27 16:52:00
10:47 AM,46.4,42.8,87,29.81,6.0,NNE,11.5,-,N/A,,Haze,30,2013-10-27 17:47:00
10:52 AM,46.9,42.1,83,29.83,6.0,NE,11.5,-,N/A,,Haze,40,2013-10-27 17:52:00
10:59 AM,46.4,42.8,87,29.81,6.0,NE,12.7,-,N/A,,Haze,40,2013-10-27 17:59:00
11:41 AM,50.0,42.8,76,29.80,7.0,NNE,13.8,-,N/A,,Overcast,30,2013-10-27 18:41:00
11:52 AM,50.0,42.1,74,29.82,7.0,NE,16.1,-,N/A,,Overcast,40,2013-10-27 18:52:00
12:52 PM,53.1,42.1,66,29.80,7.0,NE,13.8,-,N/A,,Mostly Cloudy,40,2013-10-27 19:52:00
1:15 PM,53.6,42.8,67,29.78,7.0,NE,16.1,-,N/A,,Overcast,50,2013-10-27 20:15:00
1:45 PM,53.6,42.8,67,29.79,7.0,NE,13.8,-,N/A,,Overcast,40,2013-10-27 20:45:00
1:52 PM,53.1,42.1,66,29.95,7.0,NE,15.0,21.9,N/A,,Overcast,50,2013-10-27 20:52:00
2:06 PM,53.6,42.8,67,29.80,7.0,ENE,16.1,-,N/A,,Overcast,60,2013-10-27 21:06:00
2:43 PM,51.8,42.8,71,29.80,8.0,NE,12.7,-,N/A,,Overcast,40,2013-10-27 21:43:00
2:52 PM,52.0,44.1,74,29.96,7.0,NNE,11.5,-,N/A,,Overcast,30,2013-10-27 21:52:00
3:52 PM,51.1,46.0,83,29.84,7.0,North,10.4,-,0.00,Rain,Light Rain,10,2013-10-27 22:52:00
4:52 PM,51.1,46.0,83,29.85,10.0,North,13.8,-,0.01,,Overcast,10,2013-10-27 23:52:00
5:52 PM,50.0,46.0,86,29.86,10.0,North,16.1,-,N/A,,Mostly Cloudy,360,2013-10-28 00:52:00
6:52 PM,50.0,45.0,83,30.01,10.0,North,16.1,-,N/A,,Overcast,360,2013-10-28 01:52:00
7:52 PM,48.9,44.1,83,30.02,10.0,North,13.8,-,N/A,,Overcast,10,2013-10-28 02:52:00
8:52 PM,48.0,39.9,74,30.04,10.0,NNE,15.0,-,N/A,,Mostly Cloudy,20,2013-10-28 03:52:00
9:52 PM,48.0,37.9,68,30.06,10.0,NNE,18.4,-,N/A,,Scattered Clouds,20,2013-10-28 04:52:00
10:52 PM,46.0,34.0,63,30.09,10.0,NNE,19.6,-,N/A,,Scattered Clouds,30,2013-10-28 05:52:00
11:52 PM,46.9,30.9,54,29.96,10.0,NE,17.3,27.6,N/A,,Overcast,40,2013-10-28 06:52:00